This demonstration page uses our WeatherBlox Daily Observations layout. Learn more.

Hourly Observations for December 11, 2015

Temp ( °F °C ) Dew Point ( °F °C ) Humidity (%) Winds ( mph kmh ) Pressure ( in mb ) Visibility ( mi km ) Precip ( " mm )
12:15 am 00:15 Clear 44 6.7 27 -2.8 51 51 SSE 10 17 29.59 1002 10 16.0934 0 0
12:35 am 00:35 Clear 42 5.6 27 -2.9 55 55 SSE 9 15 29.56 1001 10 16.0934 0 0
12:55 am 00:55 Clear 43 6 27 -3 53 53 SSE 12 19 29.56 1001 10 16.0934 0 0
1:15 am 01:15 Clear 42 5.8 27 -2.8 54 54 SSE 13 20 29.53 1000 10 16.0934 0 0
1:35 am 01:35 Clear 43 6.2 27 -2.6 54 54 SSE 14 22 29.53 1000 10 16.0934 0 0
1:55 am 01:55 Clear 43 6 27 -2.6 54 54 SSE 13 20 29.53 1000 10 16.0934 0 0
2:15 am 02:15 Clear 43 6.2 28 -2.5 54 54 S 13 20 29.5 999 10 16.0934 0 0
2:35 am 02:35 Clear 43 5.9 28 -2.3 56 56 S 14 22 29.5 999 10 16.0934 0 0
2:55 am 02:55 Clear 42 5.7 28 -2.1 58 58 S 14 22 29.5 999 10 16.0934 0 0
3:15 am 03:15 Clear 41 5.1 28 -2 60 60 S 10 17 29.5 999 10 16.0934 0 0
3:35 am 03:35 Clear 40 4.3 28 -2 64 64 S 8 13 29.53 1000 10 16.0934 0 0
3:55 am 03:55 Clear 38 3.5 29 -1.9 68 68 SSE 6 9 29.53 1000 10 16.0934 0 0
4:15 am 04:15 Clear 38 3.2 29 -1.7 71 71 SSE 6 9 29.53 1000 10 16.0934 0 0
4:35 am 04:35 Clear 37 2.8 29 -1.7 73 73 S 7 11 29.53 1000 10 16.0934 0 0
4:55 am 04:55 Clear 36 2 29 -1.9 76 76 S 5 7 29.53 1000 10 16.0934 0 0
5:15 am 05:15 Clear 36 2.3 29 -1.6 76 76 S 7 11 29.5 999 10 16.0934 0 0
5:35 am 05:35 Clear 36 2 29 -1.6 77 77 S 7 11 29.53 1000 10 16.0934 0 0
5:55 am 05:55 Clear 35 1.7 29 -1.7 78 78 S 5 7 29.53 1000 10 16.0934 0 0
6:15 am 06:15 Clear 34 1.2 29 -1.6 82 82 Calm 29.53 1000 10 16.0934 0 0
6:35 am 06:35 Clear 35 1.7 29 -1.7 78 78 Calm 29.53 1000 10 16.0934 0 0
6:55 am 06:55 Clear 32 0 28 -2.4 84 84 Calm 29.56 1001 10 16.0934 0 0
7:15 am 07:15 Clear 32 -0.2 28 -2.4 85 85 Calm 29.56 1001 10 16.0934 0 0
7:35 am 07:35 Clear 31 -0.5 27 -2.6 86 86 WNW 5 7 29.56 1001 10 16.0934 0 0
7:55 am 07:55 Sunny 31 -0.6 27 -2.6 87 87 NW 3 6 29.56 1001 10 16.0934 0 0
8:15 am 08:15 Sunny 31 -0.7 27 -2.7 87 87 NW 7 11 29.59 1002 10 16.0934 0 0
8:35 am 08:35 Sunny 31 -0.3 28 -2.5 85 85 NW 5 7 29.56 1001 10 16.0934 0 0
8:55 am 08:55 Sunny 34 0.9 29 -1.4 85 85 WNW 5 7 29.59 1002 10 16.0934 0 0
9:15 am 09:15 Sunny 36 2.2 30 -1.1 79 79 WNW 6 9 29.59 1002 10 16.0934 0 0
9:35 am 09:35 Sunny 37 2.9 30 -1.1 75 75 WNW 6 9 29.59 1002 10 16.0934 0 0
9:55 am 09:55 Sunny 39 3.7 30 -1 72 72 WNW 5 7 29.62 1003 10 16.0934 0 0
10:15 am 10:15 Sunny 40 4.5 31 -0.4 71 71 WNW 6 9 29.62 1003 10 16.0934 0 0
10:35 am 10:35 Sunny 42 5.6 31 -0.4 66 66 NW 9 15 29.59 1002 10 16.0934 0 0
10:55 am 10:55 Sunny 44 6.9 31 -0.3 60 60 NW 9 15 29.59 1002 10 16.0934 0 0
11:15 am 11:15 Sunny 48 9 32 -0.2 53 53 NNW 10 17 29.56 1001 10 16.0934 0 0
11:35 am 11:35 Sunny 50 9.8 31 -0.6 49 49 NNW 10 17 29.56 1001 10 16.0934 0 0
11:55 am 11:55 Sunny 51 10.4 31 -0.7 46 46 NNW 13 20 29.56 1001 10 16.0934 0 0
12:15 pm 12:15 Sunny 52 11.1 31 -0.5 45 45 NNW 8 13 29.56 1001 10 16.0934 0 0
12:35 pm 12:35 Sunny 55 12.8 31 -0.6 40 40 NW 13 20 29.53 1000 10 16.0934 0 0
12:55 pm 12:55 Sunny 56 13.6 30 -1 37 37 NW 12 19 29.53 1000 10 16.0934 0 0
1:15 pm 13:15 Sunny 58 14.2 27 -2.6 31 31 NW 15 24 29.53 1000 10 16.0934 0 0
1:35 pm 13:35 Sunny 58 14.4 27 -2.7 31 31 NW 14 22 29.53 1000 10 16.0934 0 0
1:55 pm 13:55 Sunny 57 13.9 27 -2.7 32 32 NNW 13 20 29.53 1000 10 16.0934 0 0
2:15 pm 14:15 Sunny 56 13.6 28 -2.2 34 34 NW 10 17 29.53 1000 10 16.0934 0 0
2:35 pm 14:35 Sunny 57 13.8 28 -2 34 34 NW 9 15 29.53 1000 10 16.0934 0 0
2:55 pm 14:55 Sunny 57 14 28 -2.1 33 33 NNW 7 11 29.53 1000 10 16.0934 0 0
3:15 pm 15:15 Sunny 57 14 29 -1.7 34 34 NNW 6 9 29.53 1000 10 16.0934 0 0
3:35 pm 15:35 Sunny 56 13.6 29 -1.6 35 35 N 3 6 29.56 1001 10 16.0934 0 0
3:55 pm 15:55 Sunny 55 13 29 -1.7 36 36 N 5 7 29.56 1001 10 16.0934 0 0
4:15 pm 16:15 Sunny 54 12.4 29 -1.6 38 38 N 3 6 29.62 1003 10 16.0934 0 0
4:35 pm 16:35 Sunny 53 11.5 30 -1.3 41 41 N 8 13 29.62 1003 10 16.0934 0 0
4:55 pm 16:55 Sunny 49 9.5 30 -1 48 48 N 9 15 29.65 1004 10 16.0934 0 0
5:15 pm 17:15 Clear 48 9.1 30 -1.3 48 48 N 7 11 29.68 1005 10 16.0934 0 0
5:35 pm 17:35 Clear 47 8.4 29 -1.7 49 49 N 9 15 29.71 1006 10 16.0934 0 0
5:55 pm 17:55 Clear 47 8.1 28 -2.4 48 48 N 10 17 29.71 1006 10 16.0934 0 0
6:15 pm 18:15 Clear 46 8 27 -2.6 47 47 N 9 15 29.71 1006 10 16.0934 0 0
6:35 pm 18:35 Clear 45 7.4 27 -2.6 49 49 N 9 15 29.71 1006 10 16.0934 0 0
6:55 pm 18:55 Clear 45 7 28 -2.5 51 51 N 10 17 29.74 1007 10 16.0934 0 0
7:15 pm 19:15 Clear 43 5.9 28 -2.2 56 56 N 10 17 29.77 1008 10 16.0934 0 0
7:35 pm 19:35 Clear 42 5.7 28 -2 58 58 NNE 15 24 29.74 1007 10 16.0934 0 0
7:55 pm 19:55 Clear 41 5.1 29 -1.7 62 62 NNE 16 26 29.74 1007 10 16.0934 0 0
8:15 pm 20:15 Clear 40 4.4 29 -1.5 66 66 NNE 18 30 29.77 1008 10 16.0934 0 0
8:35 pm 20:35 Clear 38 3.1 28 -2 70 70 NNE 12 19 29.8 1009 10 16.0934 0 0
8:55 pm 20:55 Clear 36 2.1 28 -2.1 74 74 NNE 12 19 29.83 1010 10 16.0934 0 0
9:15 pm 21:15 Clear 35 1.7 28 -2.1 76 76 N 14 22 29.83 1010 10 16.0934 0 0
9:35 pm 21:35 Clear 35 1.5 28 -2 78 78 N 9 15 29.83 1010 10 16.0934 0 0
9:55 pm 21:55 Clear 34 1.1 28 -2 80 80 NNE 12 19 29.85 1011 10 16.0934 0 0
10:15 pm 22:15 Clear 33 0.8 29 -1.7 84 84 NNE 14 22 29.85 1011 10 16.0934 0 0
10:35 pm 22:35 Clear 33 0.7 29 -1.5 85 85 N 12 19 29.85 1011 10 16.0934 0 0
10:55 pm 22:55 Mostly Cloudy 33 0.7 29 -1.5 85 85 N 12 19 29.85 1011 10 16.0934 0 0
11:15 pm 23:15 Cloudy 33 0.7 30 -1.3 87 87 N 10 17 29.85 1011 10 16.0934 0 0
11:35 pm 23:35 Cloudy 33 0.8 30 -1.2 87 87 N 10 17 29.88 1012 10 16.0934 0 0
11:55 pm 23:55 Cloudy 33 0.8 30 -1.2 87 87 N 10 17 29.88 1012 10 16.0934 0 0

Powered by AerisWeather